          20 12  13 39.81  -12 12.4   1.989  2.898     4.6 / 294  17.6   11  .87

          21 12  13 39.53  -12 10.5   1.994  2.896     4.3 / 295  17.6    3  .93

          22 12  13 39.26  -12 08.7   2.000  2.895     4.0 / 295  17.6   16  .98

          23 12  13 39.01  -12 07.0   2.005  2.893     3.7 / 296  17.6   30 1.00

          24 12  13 38.78  -12 05.4   2.011  2.891     3.4 / 296  17.6   45  .99

          25 12  13 38.57  -12 03.8   2.017  2.890     3.2 / 297  17.6   59  .96

          26 12  13 38.38  -12 02.4   2.023  2.888     2.8 / 298  17.6   74  .90

          27 12  13 38.21  -12 01.1   2.029  2.887     2.5 / 299  17.6   89  .82

          28 12  13 38.05  -11 59.9   2.036  2.885     2.2 / 300  17.6  103  .72

          29 12  13 37.92  -11 58.7   2.042  2.884     1.9 / 302  17.7  118  .61

          30 12  13 37.81  -11 57.7   2.049  2.883     1.6 / 304  17.7  132  .50

          31 12  13 37.72  -11 56.8   2.056  2.881     1.3 / 308  17.7  146  .39

     June  1 12  13 37.65  -11 56.0   2.063  2.880     1.0 / 313  17.7  159  .28

           2 12  13 37.60  -11 55.3   2.071  2.878      .7 / 324  17.7  173  .19

           3 12  13 37.57  -11 54.8   2.078  2.877      .5 / 346  17.7  174  .12

           4 12  13 37.56  -11 54.3   2.086  2.876      .4 /  31  17.7  161  .06

           5 12  13 37.58  -11 54.0   2.094  2.874      .6 /  66  17.7  148  .02

NAKANO

         **** Don't distribute anyone except personal use only ****

                (C) Copyright 2005 OAA/ComputingSection

write mail from CFAD0::NAKANO on 2005-05-07 04:11:12(JST).





◎P/2005 GF8の軌道と予報位置です



  4月14日に久万の中村彰正氏,那賀川の堀寿夫氏と前野拓氏,上尾の門田健一氏

によって観測されました.CCD全光度は,それぞれ,17.5等,16.9等,17.8等でした.



    P/2005 GF8 (LONEOS)

T 2005 Aug. 8.01985 TT                                  Nakano

q   2.8278818            (2000.0)            P               Q

n   0.07095200     Peri.  283.08236     -0.52617131     +0.85025367

a   5.7786484      Node   315.16063     -0.77197936     -0.48478000

e   0.5106327      Incl.    1.18444     -0.35663934     -0.20507814

P  13.89 (+/-14.37 day)

From 64 observations 2005 Apr. 2-14.

 

Date/        TT  R.A.(2000) Decl.     Delta   r     Daily motion  Mag.  Moon Age

              h    h  m       。  ,                      ,  / PA 。  m1      。

2005 Apr. 15 14  13 57.15  -13 49.1   1.948  2.947     8.6 / 289  17.6  108  .40

          16 14  13 56.59  -13 46.3   1.945  2.945     8.7 / 289  17.6   96  .50

          17 14  13 56.03  -13 43.5   1.941  2.943     8.8 / 289  17.6   84  .59

          18 14  13 55.46  -13 40.6   1.938  2.941     8.8 / 289  17.6   72  .68

          19 14  13 54.89  -13 37.7   1.936  2.939     8.9 / 289  17.6   60  .77

          20 14  13 54.31  -13 34.8   1.933  2.937     8.9 / 289  17.6   47  .85

          21 14  13 53.74  -13 31.8   1.931  2.936     8.9 / 290  17.6   34  .91

          22 14  13 53.16  -13 28.9   1.929  2.934     8.9 / 290  17.6   21  .96

          23 14  13 52.59  -13 25.9   1.927  2.932     8.9 / 290  17.6    8  .99

          24 14  13 52.01  -13 22.8   1.926  2.930     8.9 / 290  17.6    6 1.00

          25 14  13 51.44  -13 19.8   1.924  2.928     8.9 / 290  17.6   20  .98

          26 14  13 50.87  -13 16.8   1.924  2.926     8.8 / 290  17.6   34  .94

          27 14  13 50.30  -13 13.7   1.923  2.924     8.8 / 290  17.6   48  .88

          28 14  13 49.74  -13 10.7   1.923  2.922     8.7 / 290  17.6   62  .79

          29 14  13 49.18  -13 07.6   1.922  2.921     8.6 / 291  17.6   77  .69

          30 14  13 48.63  -13 04.6   1.923  2.919     8.5 / 291  17.6   91  .58

     May   1 14  13 48.09  -13 01.6   1.923  2.917     8.4 / 291  17.6  105  .46

           2 14  13 47.55  -12 58.6   1.924  2.915     8.3 / 291  17.6  120  .35

           3 14  13 47.02  -12 55.6   1.925  2.914     8.2 / 291  17.6  134  .25

           4 14  13 46.49  -12 52.7   1.926  2.912     8.0 / 291  17.6  148  .16

           5 14  13 45.98  -12 49.8   1.927  2.910     7.9 / 291  17.6  161  .09

           6 14  13 45.48  -12 46.9   1.929  2.908     7.7 / 292  17.6  175  .04

           7 14  13 44.99  -12 44.0   1.931  2.907     7.6 / 292  17.6  171  .01

           8 14  13 44.51  -12 41.2   1.933  2.905     7.4 / 292  17.6  158  .00

           9 14  13 44.04  -12 38.5   1.936  2.903     7.2 / 292  17.6  145  .02

          10 14  13 43.58  -12 35.8   1.938  2.902     7.0 / 292  17.6  133  .05

          11 14  13 43.14  -12 33.1   1.941  2.900     6.8 / 292  17.6  120  .10

          12 14  13 42.71  -12 30.6   1.944  2.899     6.6 / 293  17.6  108  .17

          13 14  13 42.30  -12 28.0   1.948  2.897     6.3 / 293  17.6   96  .25

          14 14  13 41.90  -12 25.6   1.952  2.896     6.1 / 293  17.6   84  .33

          15 14  13 41.52  -12 23.2   1.955  2.894     5.8 / 293  17.6   72  .43

NAKANO

         **** Don't distribute anyone except personal use only ****

                (C) Copyright 2005 OAA/ComputingSection

write mail from CFAD0::NAKANO on 2005-04-16 03:56:36(JST).

 



戻ります。